Regional Weather Roundup
Issued by NWS

Home | Current Version | Previous Version | Graphics & Text | Print | Product List | Glossary On
Versions: 1 2 3 4 5 6 7 8 9 10 11 12 13 14 15 16 17 18 19 20 21 22 23 24 25 26 27 28 29 30 31 32 33 34 35 36 37 38 39 40 41 42 43 44 45 46 47 48 49 50
000
ASUS45 KCYS 061210
RWRWY

WYOMING REGIONAL WEATHER ROUNDUP
NATIONAL WEATHER SERVICE CHEYENNE WY
600 AM MDT WED MAY 06 2015

NOTE:  "FAIR" INDICATES FEW OR NO CLOUDS BELOW 12,000 FEET
WITH NO SIGNIFICANT WEATHER AND/OR OBSTRUCTIONS TO VISIBILITY.

WYZ001-061300-
YELLOWSTONE NATIONAL PARK

CITY           SKY/WX    TMP DP  RH WIND       PRES   REMARKS
LK YELLOWSTONE   N/A     35  32  88 CALM      29.89S
6HR MIN TEMP:  31; 6HR MAX TEMP:  36;

W YELLOWSTONE  NOT AVBL

$$
WYZ002>013-054>058-071-098>099-061300-
NORTHERN WYOMING

CITY           SKY/WX    TMP DP  RH WIND       PRES   REMARKS
JACKSON        FAIR      36  34  93 CALM      29.84S
CODY           CLOUDY    48  45  87 N10       29.79R
GREYBULL       CLOUDY    54  49  83 NW12      29.71S
6HR MIN TEMP:  53; 6HR MAX TEMP:  61; 6HR PCP:  0.05;

WORLAND        CLOUDY    53  49  86 CALM      29.73S
6HR MIN TEMP:  52; 6HR MAX TEMP:  61; 6HR PCP:  0.02;

SHERIDAN       CLOUDY    54  46  74 NW21G26   29.73S
6HR MIN TEMP:  49; 6HR MAX TEMP:  57;

BUFFALO        MOCLDY    50  45  83 N26G39    29.73S
6HR MIN TEMP:  44; 6HR MAX TEMP:  51;

GILLETTE       CLOUDY    53  48  83 S13       29.69F
6HR MIN TEMP:  51; 6HR MAX TEMP:  54;

HULETT         CLOUDY    54  46  76 CALM      29.73S
NEWCASTLE      RAIN      50  50 100 CALM      29.73S

$$
WYZ014>020-022>026-101>103-061300-
CENTRAL WYOMING

CITY           SKY/WX    TMP DP  RH WIND       PRES   REMARKS
BIG PINEY      MOCLDY    40  33  76 N9        29.82S WCI  34
6HR MIN TEMP:  38; 6HR MAX TEMP:  47;

PINEDALE       FAIR      39  36  87 NW8       29.82S WCI  34
DUBOIS         FAIR      43  32  65 W16       29.81S
LANDER         CLOUDY    49  47  93 SE5       29.74S
6HR MIN TEMP:  48; 6HR MAX TEMP:  55; 6HR PCP:  0.06;

RIVERTON       CLOUDY    52  47  83 CALM      29.76S
6HR MIN TEMP:  51; 6HR MAX TEMP:  56; 6HR PCP:  0.01;

CASPER         CLOUDY    45  43  93 CALM      29.72S
6HR MIN TEMP:  42; 6HR MAX TEMP:  48;

DOUGLAS        CLOUDY    50  49  96 SE7       29.71S
6HR MIN TEMP:  49; 6HR MAX TEMP:  50;


$$
WYZ021-027>030-104>119-061300-
SOUTHERN WYOMING

CITY           SKY/WX    TMP DP  RH WIND       PRES   REMARKS
EVANSTON       CLOUDY    42  41  96 SW10      29.87S FOG
6HR MIN TEMP:  42; 6HR MAX TEMP:  44; 6HR PCP: TRACE;

KEMMERER       CLOUDY    43  41  93 W10       29.85S
FORT BRIDGER   CLOUDY    46  45  93 W14       29.87F
ROCK SPRINGS   LGT RAIN  45  42  89 W13       29.81S
6HR MIN TEMP:  45; 6HR MAX TEMP:  48; 6HR PCP: TRACE;

DIXON          CLOUDY    49  45  87 SW5       29.82S
RAWLINS        CLOUDY    44  40  85 CALM      29.78S
6HR MIN TEMP:  41; 6HR MAX TEMP:  44;

SARATOGA       CLOUDY    43  43 100 MISG      29.80S
LARAMIE        CLOUDY    42  40  92 CALM      29.76R
6HR MIN TEMP:  40; 6HR MAX TEMP:  42;

CHEYENNE       LGT RAIN  47  46  97 N7        29.71S
6HR MIN TEMP:  47; 6HR MAX TEMP:  47; 6HR PCP:  0.31;

TORRINGTON     LGT RAIN  52  51  97 NE5       29.68S FOG
6HR MIN TEMP:  51; 6HR MAX TEMP:  52; 6HR PCP:  0.20;

PINE BLUFFS    DRIZZLE   48  48 100 N6        29.69S

$$


USA.gov is the U.S. government's official web portal to all federal, state and local government web resources and services.